Regional Weather Roundup
Issued by NWS

Home | Current Version | Previous Version | Graphics & Text | Print | Product List | Glossary Off
Versions: 1 2 3 4 5 6 7 8 9 10 11 12 13 14 15 16 17 18 19 20 21 22 23 24 25 26 27 28 29 30 31 32 33 34 35 36 37 38 39 40 41 42 43 44 45 46 47 48 49 50

000
ASUS43 KTOP 281859
RWRKS

WEATHER ROUNDUP FOR KANSAS
NATIONAL WEATHER SERVICE GOODLAND KS
200 PM CDT MON JUL 28 2014

NOTE:  "FAIR" INDICATES FEW OR NO CLOUDS BELOW 12,000 FEET WITH NO
SIGNIFICANT WEATHER AND/OR OBSTRUCTIONS TO VISIBILITY.

KSZ001>006-013>018-027>032-041>047-282000-
NORTHWEST KANSAS

CITY           SKY/WX    TMP DP  RH WIND       PRES   REMARKS
GOODLAND       SUNNY    N/A N/A N/A MISG      30.31F
HAYS           SUNNY     82  57  42 SE3       30.27F
HILL CITY      SUNNY     84  57  39 VRB7      30.27F
RUSSELL        SUNNY     81  58  45 VRB3      30.26F
$$

KSZ061>065-074>080-084>089-282000-
SOUTHWEST KANSAS

CITY           SKY/WX    TMP DP  RH WIND       PRES   REMARKS
DODGE CITY     PTSUNNY   82  56  40 S10       30.29F
ELKHART          N/A     73  58  59 SW10        N/A
GARDEN CITY    PTSUNNY   82  60  47 S8        30.30F
GREAT BEND     SUNNY     81  57  44 CALM      30.26F
LIBERAL        CLOUDY    75  55  50 S9        30.35F
$$

KSZ066>073-081>083-090>101-282000-
SOUTHEAST KANSAS

CITY           SKY/WX    TMP DP  RH WIND       PRES   REMARKS
CHANUTE        SUNNY     82  58  43 N13       30.22F
COFFEYVILLE    SUNNY     84  58  40 N10       30.20F
HUTCHINSON     SUNNY     84  59  42 VRB7      30.26F
MEDICINE LODGE   N/A     84  59  42 VRB5      30.25F
NEWTON         SUNNY     82  55  39 N12G21    30.28F
PARSONS        SUNNY     85  58  39 NW13      30.21F
WICHITA INTL   MOSUNNY   83  60  45 NW7G16    30.24F
WICHITA JABRA  SUNNY     85  59  41 N13       30.24F
WINFIELD       SUNNY     85  60  42 N7        30.24F
$$

KSZ007>012-019>026-033>040-048>060-102>105-282000-
NORTHEAST KANSAS

CITY           SKY/WX    TMP DP  RH WIND       PRES   REMARKS
CONCORDIA      SUNNY     80  58  46 NW9       30.26F
EMPORIA        SUNNY     81  54  39 N8        30.23F
LAWRENCE       PTSUNNY   81  59  47 NW9       30.22F
MANHATTAN      SUNNY     83  54  36 VRB6      30.24F
OLATHE IND     MOSUNNY   78  58  49 N13       30.22F
OLATHE EXE     MOSUNNY   79  58  48 N10       30.21F
SALINA         SUNNY     85  55  35 NW8G18    30.25F
TOPEKA BILLARD MOSUNNY   82  57  42 N10G16    30.22F
TOPEKA FORBES  SUNNY     83  56  39 N8        30.23F
$$



USA.gov is the U.S. government's official web portal to all federal, state and local government web resources and services.